ASBM-2

导读 | 星芒AI

ASBM-2 是一颗由中国研制的遥感卫星,主要用于地球观测和环境监测。该卫星具备高分辨率成像能力,能够提供精确的地表数据,支持农业、城市规划、灾害预警等多个领域。作为 ASBM 系列的第二代产品,ASBM-2 在图像质量、数据传输效率和稳定性方面均有显著提升。它通常与其他卫星协同工作,形成更完善的遥感监测体系,为科学研究和政府决策提供可靠的数据支持。

基本信息
目录编号:
60423
目录名称:
ASBM-2
国际标识:
2024-143B
轨道中心:
EARTH
卫星名称:
ASBM-2
卫星全名:
ASBM-2
卫星状态:
在轨 (已飞行488 天)
发射日期:
2024-08-12 UTC
国别 :
挪威 (NO)
星等 :
--
轨道信息
数据来源 国际轨道数据 AOE轨道数据
星历时间 2025-12-12T16:41:32+0800
1天前
查看轨道信息
2025-12-13T10:00:00+0800
7小时前
查看轨道信息
半长轴 32175.186km 32175.585km
偏心率 0.5528817 0.552943
轨道倾角 62.679° 62.680°
近地点辐角 268.954° 268.954°
升交点赤经 52.836° 52.807°
平近点角 30.656° 61.178°
近地点 8007.979km 8006.185km
远地点 43586.123km 43588.715km
周期 957.285分钟 957.303分钟
每日圈数 1.504254 1.504226
详细信息
使用方式:
暂无
2D轨道图
3D轨道图
轨道高度分析图
轨道倾角分析图
轨道综合分析图
查看轨道综合分析图